TimePST,TemperatureF,Dew PointF,Humidity,Sea Level PressureIn,VisibilityMPH,Wind Direction,Wind SpeedMPH,Gust SpeedMPH,PrecipitationIn,Events,Conditions,WindDirDegrees,DateUTC
12:56 AM,34.0,30.0,85,30.61,10.0,ESE,3.5,-,N/A,,Overcast,110,2013-01-15 08:56:00
1:56 AM,34.0,30.0,85,30.63,10.0,Calm,Calm,-,N/A,,Overcast,0,2013-01-15 09:56:00
2:56 AM,35.1,30.9,85,30.65,10.0,ENE,3.5,-,N/A,,Overcast,60,2013-01-15 10:56:00
3:56 AM,34.0,30.9,89,30.65,10.0,SE,3.5,-,N/A,,Overcast,130,2013-01-15 11:56:00
4:56 AM,34.0,30.9,89,30.65,10.0,Calm,Calm,-,N/A,,Overcast,0,2013-01-15 12:56:00
5:56 AM,34.0,30.0,85,30.66,10.0,East,3.5,-,N/A,,Overcast,100,2013-01-15 13:56:00
6:56 AM,33.1,30.0,89,30.67,10.0,Calm,Calm,-,N/A,,Overcast,0,2013-01-15 14:56:00
7:56 AM,32.0,28.9,88,30.69,10.0,SE,4.6,-,N/A,,Overcast,130,2013-01-15 15:56:00
8:56 AM,34.0,30.9,89,30.71,10.0,ESE,3.5,-,N/A,,Mostly Cloudy,120,2013-01-15 16:56:00
9:56 AM,37.0,33.1,86,30.72,10.0,Calm,Calm,-,N/A,,Mostly Cloudy,0,2013-01-15 17:56:00
10:56 AM,41.0,36.0,82,30.73,10.0,Calm,Calm,-,N/A,,Mostly Cloudy,0,2013-01-15 18:56:00
11:56 AM,42.1,33.1,70,30.72,10.0,NNW,6.9,-,N/A,,Scattered Clouds,330,2013-01-15 19:56:00
12:56 PM,42.1,33.1,70,30.71,10.0,NNW,4.6,-,N/A,,Mostly Cloudy,330,2013-01-15 20:56:00
1:56 PM,43.0,32.0,65,30.71,10.0,NNW,5.8,-,N/A,,Scattered Clouds,330,2013-01-15 21:56:00
2:56 PM,43.0,30.0,60,30.71,10.0,NNW,4.6,-,N/A,,Scattered Clouds,340,2013-01-15 22:56:00
3:56 PM,39.9,30.9,70,30.71,10.0,ESE,3.5,-,N/A,,Mostly Cloudy,110,2013-01-15 23:56:00
4:56 PM,39.0,30.0,70,30.71,10.0,Calm,Calm,-,N/A,,Overcast,0,2013-01-16 00:56:00
5:56 PM,37.9,30.0,73,30.71,10.0,Calm,Calm,-,N/A,,Overcast,0,2013-01-16 01:56:00
6:56 PM,37.0,30.0,76,30.71,10.0,Calm,Calm,-,N/A,,Overcast,0,2013-01-16 02:56:00
7:56 PM,36.0,30.0,79,30.71,10.0,SE,4.6,-,N/A,,Overcast,130,2013-01-16 03:56:00
8:56 PM,34.0,30.0,85,30.71,10.0,SE,3.5,-,N/A,,Overcast,130,2013-01-16 04:56:00
9:56 PM,34.0,30.0,85,30.71,10.0,ESE,4.6,-,N/A,,Overcast,120,2013-01-16 05:56:00
10:56 PM,34.0,30.0,85,30.71,10.0,East,4.6,-,N/A,,Overcast,90,2013-01-16 06:56:00
11:56 PM,30.9,27.0,85,30.70,10.0,ESE,4.6,-,N/A,,Mostly Cloudy,110,2013-01-16 07:56:00